Time,TemperatureF,DewpointF,PressureIn,WindDirection,WindDirectionDegrees,WindSpeedMPH,WindSpeedGustMPH,Humidity,HourlyPrecipIn,Conditions,Clouds,dailyrainin,SoftwareType,DateUTC
2013-08-25 00:30:00,63.4,62.2,30.27,NNW,328,0.0,0.0,96,0.00,,,0.00,Wunderground v.1.15,2013-08-25 04:30:00,
2013-08-25 00:35:00,63.4,62.5,30.27,NNW,328,0.0,0.0,97,0.00,,,0.00,Wunderground v.1.15,2013-08-25 04:35:00,
2013-08-25 00:40:00,63.3,62.4,30.27,NNW,328,0.0,0.0,97,0.00,,,0.00,Wunderground v.1.15,2013-08-25 04:40:00,
2013-08-25 00:45:00,63.2,62.0,30.27,NNW,328,0.0,0.0,96,0.00,,,0.00,Wunderground v.1.15,2013-08-25 04:45:00,
2013-08-25 00:50:00,63.2,62.3,30.27,NNW,328,0.0,0.0,97,0.00,,,0.00,Wunderground v.1.15,2013-08-25 04:50:00,
2013-08-25 00:55:00,63.1,61.9,30.27,NNW,328,0.0,0.0,96,0.00,,,0.00,Wunderground v.1.15,2013-08-25 04:55:00,
2013-08-25 01:00:00,63.0,61.8,30.26,NNW,328,0.0,0.0,96,0.00,,,0.00,Wunderground v.1.15,2013-08-25 05:00:00,
2013-08-25 01:05:00,62.9,61.7,30.26,NNW,328,0.0,0.0,96,0.00,,,0.00,Wunderground v.1.15,2013-08-25 05:05:00,
2013-08-25 01:15:00,62.7,61.8,30.26,NNW,328,0.0,0.0,97,0.00,,,0.00,Wunderground v.1.15,2013-08-25 05:15:00,
2013-08-25 01:20:00,62.6,61.4,30.26,NNW,328,0.0,0.0,96,0.00,,,0.00,Wunderground v.1.15,2013-08-25 05:20:00,
2013-08-25 01:25:00,62.6,61.7,30.26,NNW,328,0.0,0.0,97,0.00,,,0.00,Wunderground v.1.15,2013-08-25 05:25:00,
2013-08-25 01:35:00,62.5,61.6,30.27,NNW,328,0.0,0.0,97,0.00,,,0.00,Wunderground v.1.15,2013-08-25 05:35:00,
2013-08-25 01:40:00,62.3,61.1,30.27,NNW,328,0.0,0.0,96,0.00,,,0.00,Wunderground v.1.15,2013-08-25 05:40:00,
2013-08-25 01:50:00,62.3,61.4,30.27,NNW,328,0.0,0.0,97,0.00,,,0.00,Wunderground v.1.15,2013-08-25 05:50:00,
2013-08-25 01:55:00,62.2,61.0,30.27,NNW,328,0.0,0.0,96,0.00,,,0.00,Wunderground v.1.15,2013-08-25 05:55:00,
2013-08-25 02:00:00,62.1,61.2,30.27,NNW,328,0.0,0.0,97,0.00,,,0.00,Wunderground v.1.15,2013-08-25 06:00:00,
2013-08-25 02:05:00,62.1,61.2,30.26,NNW,328,0.0,0.0,97,0.00,,,0.00,Wunderground v.1.15,2013-08-25 06:05:00,
2013-08-25 02:15:00,62.0,61.1,30.26,NNW,328,0.0,0.0,97,0.00,,,0.00,Wunderground v.1.15,2013-08-25 06:15:00,
2013-08-25 02:20:00,62.0,61.1,30.26,NNW,328,0.0,0.0,97,0.00,,,0.00,Wunderground v.1.15,2013-08-25 06:20:00,
2013-08-25 02:30:00,61.8,60.9,30.26,NNW,328,0.0,0.0,97,0.00,,,0.00,Wunderground v.1.15,2013-08-25 06:30:00,
2013-08-25 02:35:00,61.7,60.8,30.26,NNW,328,0.0,0.0,97,0.00,,,0.00,Wunderground v.1.15,2013-08-25 06:35:00,
2013-08-25 02:40:00,61.6,60.7,30.26,NNW,328,0.0,0.0,97,0.00,,,0.00,Wunderground v.1.15,2013-08-25 06:40:00,
2013-08-25 02:45:00,61.6,60.7,30.26,NNW,328,0.0,0.0,97,0.00,,,0.00,Wunderground v.1.15,2013-08-25 06:45:00,
2013-08-25 02:55:00,61.6,60.7,30.26,NNW,328,0.0,0.0,97,0.00,,,0.00,Wunderground v.1.15,2013-08-25 06:55:00,
2013-08-25 03:00:00,61.5,60.9,30.26,NNW,328,0.0,0.0,98,0.00,,,0.00,Wunderground v.1.15,2013-08-25 07:00:00,
2013-08-25 03:10:00,61.4,60.5,30.26,NNW,328,0.0,0.0,97,0.00,,,0.00,Wunderground v.1.15,2013-08-25 07:10:00,
2013-08-25 03:15:00,61.5,60.9,30.26,NNW,328,0.0,0.0,98,0.00,,,0.00,Wunderground v.1.15,2013-08-25 07:15:00,
2013-08-25 03:20:00,61.4,60.8,30.26,NNW,328,0.0,0.0,98,0.00,,,0.00,Wunderground v.1.15,2013-08-25 07:20:00,
2013-08-25 03:30:00,61.4,60.8,30.26,NNW,328,0.0,0.0,98,0.00,,,0.00,Wunderground v.1.15,2013-08-25 07:30:00,
2013-08-25 03:35:00,61.3,60.4,30.26,NNW,328,0.0,0.0,97,0.00,,,0.00,Wunderground v.1.15,2013-08-25 07:35:00,
2013-08-25 03:40:00,61.2,60.3,30.26,NNW,328,0.0,0.0,97,0.00,,,0.00,Wunderground v.1.15,2013-08-25 07:40:00,
2013-08-25 03:45:00,61.1,60.2,30.26,NNW,328,0.0,0.0,97,0.00,,,0.00,Wunderground v.1.15,2013-08-25 07:45:00,
2013-08-25 03:55:00,61.0,60.4,30.26,NNW,328,0.0,0.0,98,0.00,,,0.00,Wunderground v.1.15,2013-08-25 07:55:00,
2013-08-25 04:00:00,61.0,60.4,30.26,NNW,328,0.0,0.0,98,0.00,,,0.00,Wunderground v.1.15,2013-08-25 08:00:00,
2013-08-25 04:05:00,60.9,60.3,30.26,NNW,328,0.0,0.0,98,0.00,,,0.00,Wunderground v.1.15,2013-08-25 08:05:00,
2013-08-25 04:15:00,60.7,60.1,30.26,NNW,328,0.0,0.0,98,0.00,,,0.00,Wunderground v.1.15,2013-08-25 08:15:00,
2013-08-25 04:20:00,60.7,60.1,30.26,NNW,328,0.0,0.0,98,0.00,,,0.00,Wunderground v.1.15,2013-08-25 08:20:00,
2013-08-25 04:25:00,60.6,60.0,30.26,NNW,328,0.0,0.0,98,0.00,,,0.00,Wunderground v.1.15,2013-08-25 08:25:00,
2013-08-25 04:35:00,60.4,59.8,30.26,NNW,328,0.0,0.0,98,0.00,,,0.00,Wunderground v.1.15,2013-08-25 08:35:00,
2013-08-25 04:40:00,60.3,59.7,30.26,NNW,328,0.0,0.0,98,0.00,,,0.00,Wunderground v.1.15,2013-08-25 08:40:00,
2013-08-25 04:45:00,60.1,59.5,30.26,NNW,328,0.0,0.0,98,0.00,,,0.00,Wunderground v.1.15,2013-08-25 08:45:00,
2013-08-25 04:55:00,60.0,59.4,30.27,NNW,328,0.0,0.0,98,0.00,,,0.00,Wunderground v.1.15,2013-08-25 08:55:00,
2013-08-25 05:00:00,60.0,59.4,30.27,NNW,328,0.0,0.0,98,0.00,,,0.00,Wunderground v.1.15,2013-08-25 09:00:00,
2013-08-25 05:05:00,59.9,59.3,30.27,NNW,328,0.0,0.0,98,0.00,,,0.00,Wunderground v.1.15,2013-08-25 09:05:00,
2013-08-25 05:15:00,59.8,59.2,30.27,NNW,328,0.0,0.0,98,0.00,,,0.00,Wunderground v.1.15,2013-08-25 09:15:00,
2013-08-25 05:20:00,59.7,59.1,30.27,NNW,328,0.0,0.0,98,0.00,,,0.00,Wunderground v.1.15,2013-08-25 09:20:00,
2013-08-25 05:25:00,59.6,59.0,30.27,NNW,328,0.0,0.0,98,0.00,,,0.00,Wunderground v.1.15,2013-08-25 09:25:00,
2013-08-25 05:35:00,59.4,58.8,30.28,NNW,328,0.0,0.0,98,0.00,,,0.00,Wunderground v.1.15,2013-08-25 09:35:00,
2013-08-25 05:40:00,59.4,58.8,30.28,NNW,328,0.0,0.0,98,0.00,,,0.00,Wunderground v.1.15,2013-08-25 09:40:00,
2013-08-25 05:45:00,59.4,58.8,30.28,NNW,328,0.0,0.0,98,0.00,,,0.00,Wunderground v.1.15,2013-08-25 09:45:00,
2013-08-25 05:55:00,59.2,58.6,30.28,NNW,328,0.0,0.0,98,0.00,,,0.00,Wunderground v.1.15,2013-08-25 09:55:00,
2013-08-25 06:00:00,59.1,58.5,30.28,NNW,328,0.0,0.0,98,0.00,,,0.00,Wunderground v.1.15,2013-08-25 10:00:00,
2013-08-25 06:05:00,59.3,59.0,30.28,NNW,328,0.0,0.0,99,0.00,,,0.00,Wunderground v.1.15,2013-08-25 10:05:00,
2013-08-25 06:15:00,59.2,58.6,30.29,NNW,328,0.0,0.0,98,0.00,,,0.00,Wunderground v.1.15,2013-08-25 10:15:00,
2013-08-25 06:20:00,59.1,58.5,30.29,NNW,328,0.0,0.0,98,0.00,,,0.00,Wunderground v.1.15,2013-08-25 10:20:00,
2013-08-25 06:25:00,59.1,58.5,30.29,NNW,328,0.0,0.0,98,0.00,,,0.00,Wunderground v.1.15,2013-08-25 10:25:00,
2013-08-25 06:35:00,58.9,58.3,30.30,NNW,328,0.0,0.0,98,0.00,,,0.00,Wunderground v.1.15,2013-08-25 10:35:00,
2013-08-25 06:40:00,58.8,58.2,30.29,NNW,328,0.0,0.0,98,0.00,,,0.00,Wunderground v.1.15,2013-08-25 10:40:00,
2013-08-25 06:50:00,58.8,58.2,30.30,NNW,328,0.0,0.0,98,0.00,,,0.00,Wunderground v.1.15,2013-08-25 10:50:00,
2013-08-25 06:55:00,58.7,58.1,30.30,NNW,328,0.0,0.0,98,0.00,,,0.00,Wunderground v.1.15,2013-08-25 10:55:00,
2013-08-25 07:00:00,58.7,58.1,30.31,NNW,328,0.0,0.0,98,0.00,,,0.00,Wunderground v.1.15,2013-08-25 11:00:00,
2013-08-25 07:05:00,58.7,58.4,30.31,NNW,328,0.0,0.0,99,0.00,,,0.00,Wunderground v.1.15,2013-08-25 11:05:00,
2013-08-25 07:15:00,58.9,58.6,30.32,NNW,328,0.0,0.0,99,0.00,,,0.00,Wunderground v.1.15,2013-08-25 11:15:00,
2013-08-25 07:20:00,59.0,58.7,30.32,NNW,328,0.0,0.0,99,0.00,,,0.00,Wunderground v.1.15,2013-08-25 11:20:00,
2013-08-25 07:30:00,59.1,58.8,30.32,NNW,328,0.0,0.0,99,0.00,,,0.00,Wunderground v.1.15,2013-08-25 11:30:00,
2013-08-25 07:35:00,59.2,58.9,30.33,NNW,328,0.0,0.0,99,0.00,,,0.00,Wunderground v.1.15,2013-08-25 11:35:00,
2013-08-25 07:40:00,59.4,59.1,30.33,NNW,328,0.0,0.0,99,0.00,,,0.00,Wunderground v.1.15,2013-08-25 11:40:00,
2013-08-25 07:45:00,59.5,59.2,30.33,NNW,328,0.0,0.0,99,0.00,,,0.00,Wunderground v.1.15,2013-08-25 11:45:00,
2013-08-25 07:55:00,60.1,60.1,30.34,NNW,328,0.0,0.0,100,0.00,,,0.00,Wunderground v.1.15,2013-08-25 11:55:00,
2013-08-25 08:00:00,60.5,60.5,30.34,NNW,328,0.0,0.0,100,0.00,,,0.00,Wunderground v.1.15,2013-08-25 12:00:00,
2013-08-25 08:05:00,61.2,61.2,30.34,NNW,328,0.0,0.0,100,0.00,,,0.00,Wunderground v.1.15,2013-08-25 12:05:00,
2013-08-25 08:15:00,62.0,62.0,30.34,NNW,328,0.0,0.0,100,0.00,,,0.00,Wunderground v.1.15,2013-08-25 12:15:00,
2013-08-25 08:20:00,62.4,62.4,30.35,NNW,328,0.0,0.0,100,0.00,,,0.00,Wunderground v.1.15,2013-08-25 12:20:00,
2013-08-25 08:30:00,63.2,63.2,30.35,NNW,328,0.0,1.0,100,0.00,,,0.00,Wunderground v.1.15,2013-08-25 12:30:00,
2013-08-25 08:35:00,63.6,63.6,30.34,NNW,338,0.0,1.0,100,0.00,,,0.00,Wunderground v.1.15,2013-08-25 12:35:00,
2013-08-25 08:40:00,64.0,64.0,30.35,NNW,338,1.0,1.0,100,0.00,,,0.00,Wunderground v.1.15,2013-08-25 12:40:00,
2013-08-25 08:45:00,64.3,64.3,30.34,North,355,1.0,1.0,100,0.00,,,0.00,Wunderground v.1.15,2013-08-25 12:45:00,
2013-08-25 08:55:00,64.9,64.6,30.35,NNW,346,0.0,0.0,99,0.00,,,0.00,Wunderground v.1.15,2013-08-25 12:55:00,
2013-08-25 09:00:00,65.6,65.0,30.35,NNW,340,1.0,2.0,98,0.00,,,0.00,Wunderground v.1.15,2013-08-25 13:00:00,
2013-08-25 09:05:00,66.2,65.3,30.35,NW,315,1.0,2.0,97,0.00,,,0.00,Wunderground v.1.15,2013-08-25 13:05:00,
2013-08-25 09:15:00,67.0,64.9,30.34,WNW,292,1.0,3.0,93,0.00,,,0.00,Wunderground v.1.15,2013-08-25 13:15:00,
2013-08-25 09:20:00,67.6,64.9,30.35,NW,309,1.0,3.0,91,0.00,,,0.00,Wunderground v.1.15,2013-08-25 13:20:00,
2013-08-25 09:25:00,68.0,65.0,30.35,NW,309,1.0,3.0,90,0.00,,,0.00,Wunderground v.1.15,2013-08-25 13:25:00,
2013-08-25 09:35:00,68.6,64.9,30.35,West,281,1.0,1.0,88,0.00,,,0.00,Wunderground v.1.15,2013-08-25 13:35:00,
2013-08-25 09:40:00,69.1,64.1,30.35,WSW,250,1.0,1.0,84,0.00,,,0.00,Wunderground v.1.15,2013-08-25 13:40:00,
2013-08-25 09:45:00,69.5,65.1,30.35,NW,315,1.0,3.0,86,0.00,,,0.00,Wunderground v.1.15,2013-08-25 13:45:00,
2013-08-25 09:55:00,70.5,64.7,30.35,NW,321,2.0,2.0,82,0.00,,,0.00,Wunderground v.1.15,2013-08-25 13:55:00,
2013-08-25 10:00:00,70.8,65.4,30.35,North,360,1.0,2.0,83,0.00,,,0.00,Wunderground v.1.15,2013-08-25 14:00:00,
2013-08-25 10:05:00,71.0,65.2,30.35,West,280,1.0,2.0,82,0.00,,,0.00,Wunderground v.1.15,2013-08-25 14:05:00,
2013-08-25 10:15:00,71.2,66.1,30.36,North,360,1.0,1.0,84,0.00,,,0.00,Wunderground v.1.15,2013-08-25 14:15:00,
2013-08-25 10:20:00,71.3,66.2,30.36,WNW,288,1.0,4.0,84,0.00,,,0.00,Wunderground v.1.15,2013-08-25 14:20:00,
2013-08-25 10:25:00,71.9,66.8,30.36,North,355,1.0,4.0,84,0.00,,,0.00,Wunderground v.1.15,2013-08-25 14:25:00,
2013-08-25 10:35:00,73.0,66.1,30.36,NNW,337,2.0,3.0,79,0.00,,,0.00,Wunderground v.1.15,2013-08-25 14:35:00,
2013-08-25 10:40:00,73.5,67.3,30.36,North,5,2.0,2.0,81,0.00,,,0.00,Wunderground v.1.15,2013-08-25 14:40:00,
2013-08-25 10:45:00,73.9,66.6,30.36,NNE,31,1.0,2.0,78,0.00,,,0.00,Wunderground v.1.15,2013-08-25 14:45:00,
2013-08-25 10:55:00,74.0,66.0,30.36,NW,320,1.0,4.0,76,0.00,,,0.00,Wunderground v.1.15,2013-08-25 14:55:00,
2013-08-25 11:00:00,73.7,66.0,30.36,NW,305,2.0,2.0,77,0.00,,,0.00,Wunderground v.1.15,2013-08-25 15:00:00,
2013-08-25 11:10:00,74.5,66.8,30.35,North,360,2.0,2.0,77,0.00,,,0.00,Wunderground v.1.15,2013-08-25 15:10:00,
2013-08-25 11:15:00,74.6,65.8,30.35,NW,325,1.0,2.0,74,0.00,,,0.00,Wunderground v.1.15,2013-08-25 15:15:00,
2013-08-25 11:20:00,74.7,65.9,30.35,NE,55,1.0,1.0,74,0.00,,,0.00,Wunderground v.1.15,2013-08-25 15:20:00,
2013-08-25 11:30:00,74.3,64.3,30.34,WNW,290,2.0,2.0,71,0.00,,,0.00,Wunderground v.1.15,2013-08-25 15:30:00,
2013-08-25 11:35:00,74.5,64.5,30.34,West,259,2.0,2.0,71,0.00,,,0.00,Wunderground v.1.15,2013-08-25 15:35:00,
2013-08-25 11:40:00,74.7,64.7,30.34,WSW,250,1.0,2.0,71,0.00,,,0.00,Wunderground v.1.15,2013-08-25 15:40:00,
2013-08-25 11:50:00,75.1,65.1,30.34,West,275,2.0,2.0,71,0.00,,,0.00,Wunderground v.1.15,2013-08-25 15:50:00,
2013-08-25 11:55:00,75.3,66.4,30.33,SSW,200,2.0,3.0,74,0.00,,,0.00,Wunderground v.1.15,2013-08-25 15:55:00,
2013-08-25 12:00:00,75.4,65.7,30.33,SW,236,2.0,2.0,72,0.00,,,0.00,Wunderground v.1.15,2013-08-25 16:00:00,
2013-08-25 12:05:00,75.5,65.4,30.34,SW,228,2.0,2.0,71,0.00,,,0.00,Wunderground v.1.15,2013-08-25 16:05:00,
2013-08-25 12:15:00,76.0,64.7,30.33,WSW,255,1.0,4.0,68,0.00,,,0.00,Wunderground v.1.15,2013-08-25 16:15:00,
2013-08-25 12:20:00,76.1,64.8,30.33,WSW,247,1.0,1.0,68,0.00,,,0.00,Wunderground v.1.15,2013-08-25 16:20:00,
2013-08-25 12:25:00,76.3,65.8,30.33,NE,51,1.0,1.0,70,0.00,,,0.00,Wunderground v.1.15,2013-08-25 16:25:00,
2013-08-25 12:35:00,76.8,65.4,30.33,ENE,68,1.0,2.0,68,0.00,,,0.00,Wunderground v.1.15,2013-08-25 16:35:00,
2013-08-25 12:40:00,76.7,63.6,30.33,West,274,1.0,1.0,64,0.00,,,0.00,Wunderground v.1.15,2013-08-25 16:40:00,
2013-08-25 12:45:00,76.5,64.7,30.33,West,274,1.0,1.0,67,0.00,,,0.00,Wunderground v.1.15,2013-08-25 16:45:00,
2013-08-25 12:55:00,77.2,65.4,30.33,NNE,24,1.0,3.0,67,0.00,,,0.00,Wunderground v.1.15,2013-08-25 16:55:00,
2013-08-25 13:00:00,77.5,63.5,30.33,North,355,2.0,2.0,62,0.00,,,0.00,Wunderground v.1.15,2013-08-25 17:00:00,
2013-08-25 13:05:00,77.6,64.9,30.32,North,5,2.0,2.0,65,0.00,,,0.00,Wunderground v.1.15,2013-08-25 17:05:00,
2013-08-25 13:15:00,77.9,63.8,30.32,North,9,2.0,2.0,62,0.00,,,0.00,Wunderground v.1.15,2013-08-25 17:15:00,
2013-08-25 13:20:00,78.0,63.0,30.32,WSW,246,2.0,2.0,60,0.00,,,0.00,Wunderground v.1.15,2013-08-25 17:20:00,
2013-08-25 13:25:00,78.2,63.6,30.32,WSW,258,2.0,2.0,61,0.00,,,0.00,Wunderground v.1.15,2013-08-25 17:25:00,
2013-08-25 13:35:00,78.2,65.5,30.31,SW,236,1.0,3.0,65,0.00,,,0.00,Wunderground v.1.15,2013-08-25 17:35:00,
2013-08-25 13:40:00,77.9,63.8,30.31,NW,321,1.0,1.0,62,0.00,,,0.00,Wunderground v.1.15,2013-08-25 17:40:00,
2013-08-25 13:45:00,78.1,61.6,30.31,North,360,1.0,1.0,57,0.00,,,0.00,Wunderground v.1.15,2013-08-25 17:45:00,
2013-08-25 13:55:00,78.2,65.0,30.31,NNW,333,1.0,2.0,64,0.00,,,0.00,Wunderground v.1.15,2013-08-25 17:55:00,
2013-08-25 14:00:00,78.5,63.5,30.31,SSE,159,1.0,1.0,60,0.00,,,0.00,Wunderground v.1.15,2013-08-25 18:00:00,
2013-08-25 14:10:00,78.4,64.8,30.31,SSE,157,1.0,1.0,63,0.00,,,0.00,Wunderground v.1.15,2013-08-25 18:10:00,
2013-08-25 14:15:00,77.6,61.7,30.30,West,259,1.0,3.0,58,0.00,,,0.00,Wunderground v.1.15,2013-08-25 18:15:00,
2013-08-25 14:20:00,77.7,63.2,30.30,North,355,1.0,1.0,61,0.00,,,0.00,Wunderground v.1.15,2013-08-25 18:20:00,
2013-08-25 14:30:00,78.9,64.8,30.30,NE,40,1.0,1.0,62,0.00,,,0.00,Wunderground v.1.15,2013-08-25 18:30:00,
2013-08-25 14:35:00,79.3,61.2,30.30,West,272,1.0,2.0,54,0.00,,,0.00,Wunderground v.1.15,2013-08-25 18:35:00,
2013-08-25 14:40:00,78.8,61.3,30.30,NNW,342,2.0,4.0,55,0.00,,,0.00,Wunderground v.1.15,2013-08-25 18:40:00,
2013-08-25 14:50:00,78.7,62.2,30.29,NNE,16,1.0,1.0,57,0.00,,,0.00,Wunderground v.1.15,2013-08-25 18:50:00,
2013-08-25 14:55:00,78.7,62.7,30.29,NNW,329,1.0,3.0,58,0.00,,,0.00,Wunderground v.1.15,2013-08-25 18:55:00,
2013-08-25 15:00:00,78.9,61.9,30.29,NW,305,1.0,3.0,56,0.00,,,0.00,Wunderground v.1.15,2013-08-25 19:00:00,
2013-08-25 15:05:00,78.9,63.4,30.29,WNW,298,1.0,3.0,59,0.00,,,0.00,Wunderground v.1.15,2013-08-25 19:05:00,
2013-08-25 15:15:00,79.2,65.5,30.28,WNW,296,1.0,2.0,63,0.00,,,0.00,Wunderground v.1.15,2013-08-25 19:15:00,
2013-08-25 15:20:00,79.4,63.8,30.28,West,276,1.0,1.0,59,0.00,,,0.00,Wunderground v.1.15,2013-08-25 19:20:00,
2013-08-25 15:30:00,79.1,60.5,30.27,West,267,2.0,2.0,53,0.00,,,0.00,Wunderground v.1.15,2013-08-25 19:30:00,
2013-08-25 15:35:00,79.3,63.7,30.27,West,267,1.0,2.0,59,0.00,,,0.00,Wunderground v.1.15,2013-08-25 19:35:00,
2013-08-25 15:40:00,79.2,61.1,30.27,NW,311,1.0,1.0,54,0.00,,,0.00,Wunderground v.1.15,2013-08-25 19:40:00,
2013-08-25 15:50:00,79.4,64.3,30.27,WNW,289,1.0,1.0,60,0.00,,,0.00,Wunderground v.1.15,2013-08-25 19:50:00,
2013-08-25 15:55:00,79.4,59.7,30.27,NE,39,1.0,2.0,51,0.00,,,0.00,Wunderground v.1.15,2013-08-25 19:55:00,
2013-08-25 16:00:00,79.8,62.7,30.26,NE,39,1.0,1.0,56,0.00,,,0.00,Wunderground v.1.15,2013-08-25 20:00:00,
2013-08-25 16:10:00,79.5,63.4,30.26,West,267,1.0,1.0,58,0.00,,,0.00,Wunderground v.1.15,2013-08-25 20:10:00,
2013-08-25 16:15:00,79.4,64.3,30.26,West,267,1.0,1.0,60,0.00,,,0.00,Wunderground v.1.15,2013-08-25 20:15:00,
2013-08-25 16:20:00,79.2,62.1,30.26,North,5,0.0,1.0,56,0.00,,,0.00,Wunderground v.1.15,2013-08-25 20:20:00,
2013-08-25 16:30:00,79.5,61.9,30.26,NE,40,1.0,1.0,55,0.00,,,0.00,Wunderground v.1.15,2013-08-25 20:30:00,
2013-08-25 16:35:00,79.5,59.8,30.26,NNW,338,1.0,1.0,51,0.00,,,0.00,Wunderground v.1.15,2013-08-25 20:35:00,
2013-08-25 16:40:00,79.4,63.3,30.26,NNW,338,1.0,1.0,58,0.00,,,0.00,Wunderground v.1.15,2013-08-25 20:40:00,
2013-08-25 16:50:00,79.2,62.1,30.26,WNW,302,0.0,0.0,56,0.00,,,0.00,Wunderground v.1.15,2013-08-25 20:50:00,
2013-08-25 16:55:00,79.4,59.7,30.26,WNW,302,0.0,0.0,51,0.00,,,0.00,Wunderground v.1.15,2013-08-25 20:55:00,
2013-08-25 17:00:00,79.3,63.7,30.26,WNW,302,0.0,0.0,59,0.00,,,0.00,Wunderground v.1.15,2013-08-25 21:00:00,
2013-08-25 17:10:00,78.6,60.6,30.26,NNW,341,1.0,2.0,54,0.00,,,0.00,Wunderground v.1.15,2013-08-25 21:10:00,
2013-08-25 17:15:00,79.0,62.0,30.26,NE,41,1.0,2.0,56,0.00,,,0.00,Wunderground v.1.15,2013-08-25 21:15:00,
2013-08-25 17:25:00,78.9,58.7,30.26,North,351,1.0,3.0,50,0.00,,,0.00,Wunderground v.1.15,2013-08-25 21:25:00,
2013-08-25 17:30:00,78.6,59.5,30.26,NNW,342,2.0,2.0,52,0.00,,,0.00,Wunderground v.1.15,2013-08-25 21:30:00,
2013-08-25 17:35:00,78.1,62.6,30.26,West,272,1.0,2.0,59,0.00,,,0.00,Wunderground v.1.15,2013-08-25 21:35:00,
2013-08-25 17:45:00,77.4,61.5,30.26,NNE,24,1.0,1.0,58,0.00,,,0.00,Wunderground v.1.15,2013-08-25 21:45:00,
2013-08-25 17:50:00,77.3,60.4,30.26,NNE,24,1.0,1.0,56,0.00,,,0.00,Wunderground v.1.15,2013-08-25 21:50:00,
2013-08-25 17:55:00,77.0,60.1,30.26,NNE,19,1.0,1.0,56,0.00,,,0.00,Wunderground v.1.15,2013-08-25 21:55:00,
2013-08-25 18:00:00,76.8,60.9,30.26,NNE,17,1.0,3.0,58,0.00,,,0.00,Wunderground v.1.15,2013-08-25 22:00:00,
2013-08-25 18:10:00,76.2,62.2,30.26,North,9,0.0,0.0,62,0.00,,,0.00,Wunderground v.1.15,2013-08-25 22:10:00,
2013-08-25 18:15:00,75.9,63.3,30.26,North,9,0.0,0.0,65,0.00,,,0.00,Wunderground v.1.15,2013-08-25 22:15:00,
2013-08-25 18:20:00,75.3,63.2,30.26,North,9,0.0,0.0,66,0.00,,,0.00,Wunderground v.1.15,2013-08-25 22:20:00,
2013-08-25 18:30:00,74.4,62.7,30.26,North,9,0.0,0.0,67,0.00,,,0.00,Wunderground v.1.15,2013-08-25 22:30:00,
2013-08-25 18:35:00,74.0,63.2,30.26,North,9,0.0,0.0,69,0.00,,,0.00,Wunderground v.1.15,2013-08-25 22:35:00,
2013-08-25 18:40:00,73.7,63.3,30.26,North,9,0.0,0.0,70,0.00,,,0.00,Wunderground v.1.15,2013-08-25 22:40:00,
2013-08-25 18:50:00,72.9,62.9,30.26,North,9,0.0,0.0,71,0.00,,,0.00,Wunderground v.1.15,2013-08-25 22:50:00,
2013-08-25 18:55:00,72.5,63.7,30.26,North,9,0.0,0.0,74,0.00,,,0.00,Wunderground v.1.15,2013-08-25 22:55:00,
2013-08-25 19:00:00,72.2,63.4,30.26,North,9,0.0,0.0,74,0.00,,,0.00,Wunderground v.1.15,2013-08-25 23:00:00,
2013-08-25 19:10:00,71.5,63.2,30.25,North,9,0.0,0.0,75,0.00,,,0.00,Wunderground v.1.15,2013-08-25 23:10:00,
2013-08-25 19:15:00,71.1,63.5,30.25,North,9,0.0,0.0,77,0.00,,,0.00,Wunderground v.1.15,2013-08-25 23:15:00,
2013-08-25 19:20:00,70.6,63.0,30.25,North,9,0.0,0.0,77,0.00,,,0.00,Wunderground v.1.15,2013-08-25 23:20:00,
2013-08-25 19:30:00,70.0,62.5,30.25,North,9,0.0,0.0,77,0.00,,,0.00,Wunderground v.1.15,2013-08-25 23:30:00,
2013-08-25 19:35:00,69.8,63.3,30.25,North,9,0.0,0.0,80,0.00,,,0.00,Wunderground v.1.15,2013-08-25 23:35:00,
2013-08-25 19:45:00,69.1,63.4,30.25,North,9,0.0,0.0,82,0.00,,,0.00,Wunderground v.1.15,2013-08-25 23:45:00,
2013-08-25 19:50:00,68.8,63.4,30.25,North,9,0.0,0.0,83,0.00,,,0.00,Wunderground v.1.15,2013-08-25 23:50:00,
2013-08-25 19:55:00,68.4,63.0,30.25,North,9,0.0,0.0,83,0.00,,,0.00,Wunderground v.1.15,2013-08-25 23:55:00,
2013-08-25 20:05:00,67.7,62.3,30.26,North,9,0.0,0.0,83,0.00,,,0.00,Wunderground v.1.15,2013-08-26 00:05:00,
2013-08-25 20:10:00,67.3,62.3,30.26,North,9,0.0,0.0,84,0.00,,,0.00,Wunderground v.1.15,2013-08-26 00:10:00,
2013-08-25 20:15:00,67.0,62.3,30.26,North,9,0.0,0.0,85,0.00,,,0.00,Wunderground v.1.15,2013-08-26 00:15:00,
2013-08-25 20:25:00,66.3,62.0,30.26,North,9,0.0,0.0,86,0.00,,,0.00,Wunderground v.1.15,2013-08-26 00:25:00,
2013-08-25 20:30:00,65.9,62.2,30.26,North,9,0.0,0.0,88,0.00,,,0.00,Wunderground v.1.15,2013-08-26 00:30:00,
2013-08-25 20:35:00,65.5,61.5,30.26,North,9,0.0,0.0,87,0.00,,,0.00,Wunderground v.1.15,2013-08-26 00:35:00,
2013-08-25 20:45:00,65.0,61.4,30.26,North,9,0.0,0.0,88,0.00,,,0.00,Wunderground v.1.15,2013-08-26 00:45:00,
2013-08-25 20:50:00,64.7,61.4,30.26,North,9,0.0,0.0,89,0.00,,,0.00,Wunderground v.1.15,2013-08-26 00:50:00,
2013-08-25 20:55:00,64.5,61.2,30.27,North,9,0.0,0.0,89,0.00,,,0.00,Wunderground v.1.15,2013-08-26 00:55:00,
2013-08-25 21:05:00,64.0,60.7,30.27,North,9,0.0,0.0,89,0.00,,,0.00,Wunderground v.1.15,2013-08-26 01:05:00,
2013-08-25 21:10:00,63.8,61.1,30.27,North,9,0.0,0.0,91,0.00,,,0.00,Wunderground v.1.15,2013-08-26 01:10:00,
2013-08-25 21:15:00,63.6,60.9,30.27,North,9,0.0,0.0,91,0.00,,,0.00,Wunderground v.1.15,2013-08-26 01:15:00,
2013-08-25 21:25:00,63.2,60.8,30.27,North,9,0.0,0.0,92,0.00,,,0.00,Wunderground v.1.15,2013-08-26 01:25:00,
2013-08-25 21:30:00,63.0,60.9,30.27,North,9,0.0,0.0,93,0.00,,,0.00,Wunderground v.1.15,2013-08-26 01:30:00,
2013-08-25 21:40:00,62.6,60.5,30.27,North,9,0.0,0.0,93,0.00,,,0.00,Wunderground v.1.15,2013-08-26 01:40:00,
2013-08-25 21:45:00,62.5,60.4,30.27,North,9,0.0,0.0,93,0.00,,,0.00,Wunderground v.1.15,2013-08-26 01:45:00,
2013-08-25 21:55:00,62.1,60.4,30.27,North,9,0.0,0.0,94,0.00,,,0.00,Wunderground v.1.15,2013-08-26 01:55:00,
2013-08-25 22:00:00,62.0,60.3,30.27,North,9,0.0,0.0,94,0.00,,,0.00,Wunderground v.1.15,2013-08-26 02:00:00,
2013-08-25 22:10:00,61.7,60.0,30.28,North,9,0.0,0.0,94,0.00,,,0.00,Wunderground v.1.15,2013-08-26 02:10:00,
2013-08-25 22:15:00,61.6,59.9,30.28,North,9,0.0,0.0,94,0.00,,,0.00,Wunderground v.1.15,2013-08-26 02:15:00,
2013-08-25 22:25:00,61.3,59.6,30.28,North,9,0.0,0.0,94,0.00,,,0.00,Wunderground v.1.15,2013-08-26 02:25:00,
2013-08-25 22:30:00,61.2,59.5,30.28,North,9,0.0,0.0,94,0.00,,,0.00,Wunderground v.1.15,2013-08-26 02:30:00,
2013-08-25 22:35:00,61.0,59.3,30.28,North,9,0.0,0.0,94,0.00,,,0.00,Wunderground v.1.15,2013-08-26 02:35:00,
2013-08-25 22:40:00,60.8,59.4,30.28,North,9,0.0,0.0,95,0.00,,,0.00,Wunderground v.1.15,2013-08-26 02:40:00,
2013-08-25 22:50:00,60.5,59.1,30.28,North,9,0.0,0.0,95,0.00,,,0.00,Wunderground v.1.15,2013-08-26 02:50:00,
2013-08-25 22:55:00,60.4,59.0,30.27,North,9,0.0,0.0,95,0.00,,,0.00,Wunderground v.1.15,2013-08-26 02:55:00,
2013-08-25 23:00:00,60.2,58.8,30.28,North,9,0.0,0.0,95,0.00,,,0.00,Wunderground v.1.15,2013-08-26 03:00:00,
2013-08-25 23:10:00,60.0,58.6,30.28,North,9,0.0,0.0,95,0.00,,,0.00,Wunderground v.1.15,2013-08-26 03:10:00,
2013-08-25 23:15:00,59.9,58.5,30.28,North,9,0.0,0.0,95,0.00,,,0.00,Wunderground v.1.15,2013-08-26 03:15:00,
2013-08-25 23:20:00,59.8,58.7,30.28,North,9,0.0,0.0,96,0.00,,,0.00,Wunderground v.1.15,2013-08-26 03:20:00,
2013-08-25 23:30:00,59.6,58.5,30.28,North,9,0.0,0.0,96,0.00,,,0.00,Wunderground v.1.15,2013-08-26 03:30:00,
2013-08-25 23:35:00,59.5,58.4,30.29,North,9,0.0,0.0,96,0.00,,,0.00,Wunderground v.1.15,2013-08-26 03:35:00,
2013-08-25 23:40:00,59.5,58.4,30.29,North,9,0.0,0.0,96,0.00,,,0.00,Wunderground v.1.15,2013-08-26 03:40:00,
2013-08-25 23:50:00,59.3,58.4,30.28,North,9,0.0,0.0,97,0.00,,,0.00,Wunderground v.1.15,2013-08-26 03:50:00,
2013-08-25 23:55:00,59.3,58.2,30.28,North,9,0.0,0.0,96,0.00,,,0.00,Wunderground v.1.15,2013-08-26 03:55:00,